• In Hungary
  • List of Countries
  • For 7 days
  • Water Temperature
  • Satellite Maps
  • Weather Map
  • News
  • Weather Widgets
  • user-avatar
    Login

    Hourly Weather Kollektiv

    Today, 24 October, Wednesday

    Time Temperature Precipitation Wind Pressure Humidity
    00:00 +5°C° 0 mm 5 mps 730 mmHg 80%
    01:00 +5°C° 0.1 mm 5 mps 729 mmHg 80%
    02:00 +5°C° 0.1 mm 5 mps 729 mmHg 79%
    03:00 +5°C° 0.1 mm 5 mps 728 mmHg 79%
    04:00 +3°C° 0.2 mm 5 mps 727 mmHg 79%
    05:00 +3°C° 0.2 mm 5 mps 727 mmHg 79%
    06:00 +4°C° 0.2 mm 4 mps 726 mmHg 80%
    07:00 +3°C° 0.2 mm 5 mps 726 mmHg 79%
    08:00 +4°C° 0.2 mm 6 mps 725 mmHg 78%
    09:00 +4°C° 0.2 mm 6 mps 725 mmHg 77%
    10:00 +4°C° 0.2 mm 6 mps 724 mmHg 77%
    11:00 +5°C° 0.2 mm 7 mps 724 mmHg 76%
    12:00 +5°C° 0.2 mm 7 mps 723 mmHg 76%
    13:00 +5°C° 0.3 mm 6 mps 723 mmHg 78%
    14:00 +6°C° 0.3 mm 5 mps 722 mmHg 80%
    15:00 +6°C° 0.3 mm 5 mps 722 mmHg 82%
    16:00 +6°C° 0.2 mm 4 mps 722 mmHg 85%
    17:00 +7°C° 0.2 mm 3 mps 721 mmHg 88%
    18:00 +5°C° 0.2 mm 3 mps 721 mmHg 91%
    19:00 +5°C° 0 mm 3 mps 721 mmHg 92%
    20:00 +5°C° 0 mm 3 mps 721 mmHg 93%
    21:00 +5°C° 0 mm 3 mps 721 mmHg 94%
    22:00 +5°C° 0.1 mm 4 mps 721 mmHg 93%
    23:00 +5°C° 0.1 mm 5 mps 720 mmHg 91%

    Tomorrow, 25 October, Thursday

    Time Temperature Precipitation Wind Pressure Humidity
    00:00 +5°C° 0.1 mm 5 mps 720 mmHg 90%
    01:00 +5°C° 0.1 mm 5 mps 720 mmHg 89%
    02:00 +5°C° 0.1 mm 5 mps 720 mmHg 89%
    03:00 +5°C° 0.1 mm 5 mps 720 mmHg 88%
    04:00 +3°C° 0 mm 5 mps 719 mmHg 89%
    05:00 +3°C° 0 mm 5 mps 719 mmHg 90%
    06:00 +3°C° 0 mm 5 mps 719 mmHg 91%
    07:00 +3°C° 0 mm 5 mps 719 mmHg 89%
    08:00 +3°C° 0 mm 5 mps 719 mmHg 87%
    09:00 +3°C° 0 mm 5 mps 719 mmHg 85%
    10:00 +5°C° 0 mm 5 mps 719 mmHg 83%
    11:00 +5°C° 0 mm 4 mps 719 mmHg 81%
    12:00 +5°C° 0 mm 4 mps 719 mmHg 80%
    13:00 +5°C° 0.4 mm 5 mps 720 mmHg 80%
    14:00 +5°C° 0.4 mm 5 mps 720 mmHg 81%
    15:00 +5°C° 0.4 mm 5 mps 720 mmHg 81%
    16:00 +4°C° 0.4 mm 6 mps 720 mmHg 80%
    17:00 +3°C° 0.4 mm 6 mps 721 mmHg 80%
    18:00 +3°C° 0.4 mm 7 mps 721 mmHg 79%
    19:00 +2°C° 0 mm 7 mps 722 mmHg 78%
    20:00 +2°C° 0 mm 6 mps 722 mmHg 78%
    21:00 +1°C° 0 mm 6 mps 723 mmHg 77%
    22:00 +1°C° 0 mm 6 mps 724 mmHg 76%
    23:00 +1°C° 0 mm 6 mps 724 mmHg 76%

    Day after tomorrow, 26 October, Friday

    Time Temperature Precipitation Wind Pressure Humidity
    00:00 +1°C° 0 mm 6 mps 725 mmHg 75%
    01:00 0°C° 0 mm 5 mps 726 mmHg 76%
    02:00 0°C° 0 mm 5 mps 726 mmHg 77%
    03:00 -1°C° 0 mm 4 mps 727 mmHg 78%
    04:00 -1°C° 0 mm 4 mps 727 mmHg 79%
    05:00 -1°C° 0 mm 4 mps 727 mmHg 80%
    06:00 -1°C° 0 mm 4 mps 728 mmHg 82%
    07:00 -1°C° 0 mm 5 mps 728 mmHg 81%
    08:00 0°C° 0 mm 5 mps 729 mmHg 81%
    09:00 0°C° 0 mm 5 mps 729 mmHg 81%
    10:00 +1°C° 0 mm 6 mps 730 mmHg 75%
    11:00 +2°C° 0 mm 6 mps 730 mmHg 70%
    12:00 +3°C° 0 mm 6 mps 730 mmHg 65%
    13:00 +3°C° 0 mm 6 mps 731 mmHg 63%
    14:00 +3°C° 0 mm 6 mps 731 mmHg 62%
    15:00 +3°C° 0 mm 6 mps 731 mmHg 61%
    16:00 +2°C° 0.1 mm 6 mps 731 mmHg 65%
    17:00 +2°C° 0.1 mm 5 mps 731 mmHg 69%
    18:00 +2°C° 0.1 mm 5 mps 731 mmHg 72%
    19:00 +1°C° 0.1 mm 5 mps 732 mmHg 75%
    20:00 +1°C° 0.1 mm 5 mps 732 mmHg 78%
    21:00 +1°C° 0.1 mm 6 mps 732 mmHg 80%
    22:00 +1°C° 0.1 mm 5 mps 732 mmHg 82%
    23:00 +1°C° 0.1 mm 5 mps 733 mmHg 85%

    27 October, Saturday

    Time Temperature Precipitation Wind Pressure Humidity
    00:00 0°C° 0.1 mm 4 mps 733 mmHg 87%
    01:00 0°C° 0 mm 4 mps 734 mmHg 88%
    02:00 -1°C° 0 mm 4 mps 734 mmHg 89%
    03:00 -1°C° 0 mm 4 mps 735 mmHg 90%
    04:00 -1°C° 0 mm 4 mps 735 mmHg 91%
    05:00 -2°C° 0 mm 4 mps 735 mmHg 91%
    06:00 -2°C° 0 mm 4 mps 735 mmHg 92%
    07:00 -1°C° 0 mm 5 mps 735 mmHg 88%
    08:00 0°C° 0 mm 5 mps 735 mmHg 84%
    09:00 -1°C° 0 mm 6 mps 735 mmHg 81%
    10:00 0°C° 0.1 mm 7 mps 735 mmHg 78%
    11:00 +2°C° 0.1 mm 7 mps 734 mmHg 76%
    12:00 +2°C° 0.1 mm 8 mps 734 mmHg 74%
    13:00 +2°C° 0.6 mm 9 mps 733 mmHg 75%
    14:00 +3°C° 0.6 mm 9 mps 732 mmHg 76%
    15:00 +3°C° 0.6 mm 10 mps 731 mmHg 78%
    16:00 +3°C° 0.8 mm 10 mps 730 mmHg 79%
    17:00 +5°C° 0.8 mm 10 mps 730 mmHg 81%
    18:00 +5°C° 0.8 mm 10 mps 729 mmHg 83%
    19:00 +5°C° 0.3 mm 9 mps 729 mmHg 79%
    20:00 +3°C° 0.3 mm 9 mps 729 mmHg 76%
    21:00 +4°C° 0.3 mm 8 mps 729 mmHg 73%
    22:00 +2°C° 0 mm 9 mps 730 mmHg 71%
    23:00 +2°C° 0 mm 10 mps 731 mmHg 70%

    28 October, Sunday

    Time Temperature Precipitation Wind Pressure Humidity
    00:00 +1°C° 0 mm 11 mps 731 mmHg 68%
    01:00 +1°C° 0 mm 11 mps 732 mmHg 69%
    02:00 -1°C° 0 mm 11 mps 733 mmHg 70%
    03:00 0°C° 0 mm 10 mps 734 mmHg 71%
    04:00 -2°C° 0 mm 10 mps 735 mmHg 72%
    05:00 -1°C° 0 mm 9 mps 736 mmHg 73%
    06:00 -2°C° 0 mm 8 mps 737 mmHg 74%
    07:00 -2°C° 0 mm 8 mps 739 mmHg 75%
    08:00 -2°C° 0 mm 8 mps 740 mmHg 76%
    09:00 -2°C° 0 mm 7 mps 741 mmHg 76%
    10:00 -1°C° 0 mm 7 mps 742 mmHg 74%
    11:00 -1°C° 0 mm 6 mps 743 mmHg 71%
    12:00 +1°C° 0 mm 6 mps 743 mmHg 69%
    13:00 +2°C° 0 mm 6 mps 744 mmHg 66%
    14:00 +2°C° 0 mm 6 mps 745 mmHg 64%
    15:00 +2°C° 0 mm 6 mps 745 mmHg 62%
    16:00 +1°C° 0 mm 5 mps 746 mmHg 66%
    17:00 +1°C° 0 mm 4 mps 746 mmHg 71%
    18:00 +1°C° 0 mm 3 mps 747 mmHg 75%
    19:00 0°C° 0 mm 3 mps 747 mmHg 77%
    20:00 +1°C° 0 mm 2 mps 748 mmHg 79%
    21:00 +1°C° 0 mm 2 mps 748 mmHg 82%
    22:00 +1°C° 0 mm 2 mps 749 mmHg 82%
    23:00 +1°C° 0 mm 2 mps 749 mmHg 82%

    29 October, Monday

    Time Temperature Precipitation Wind Pressure Humidity
    00:00 +1°C° 0 mm 1 mps 749 mmHg 82%
    01:00 +2°C° 0 mm 1 mps 750 mmHg 81%
    02:00 +2°C° 0 mm 1 mps 750 mmHg 81%
    03:00 +2°C° 0 mm 1 mps 750 mmHg 81%
    04:00 +1°C° 0 mm 1 mps 750 mmHg 81%
    05:00 +1°C° 0 mm 1 mps 750 mmHg 80%
    06:00 +1°C° 0 mm 1 mps 750 mmHg 80%
    07:00 +1°C° 0.1 mm 1 mps 750 mmHg 79%
    08:00 +2°C° 0.1 mm 1 mps 751 mmHg 78%
    09:00 +2°C° 0.1 mm 1 mps 751 mmHg 77%
    10:00 +1°C° 0.4 mm 2 mps 751 mmHg 80%
    11:00 +1°C° 0.4 mm 2 mps 751 mmHg 82%
    12:00 +1°C° 0.4 mm 2 mps 750 mmHg 85%
    13:00 0°C° 0.7 mm 3 mps 750 mmHg 87%
    14:00 0°C° 0.7 mm 3 mps 750 mmHg 89%
    15:00 -2°C° 0.7 mm 4 mps 749 mmHg 92%
    16:00 -2°C° 1.1 mm 4 mps 749 mmHg 93%
    17:00 -2°C° 1.1 mm 5 mps 749 mmHg 94%
    18:00 -2°C° 1.1 mm 5 mps 748 mmHg 95%
    19:00 -3°C° 1.2 mm 6 mps 748 mmHg 95%
    20:00 -3°C° 1.2 mm 6 mps 747 mmHg 95%
    21:00 -3°C° 1.2 mm 6 mps 747 mmHg 95%
    22:00 -3°C° 1.3 mm 6 mps 746 mmHg 96%
    23:00 -3°C° 1.3 mm 6 mps 746 mmHg 96%

    30 October, Tuesday

    Time Temperature Precipitation Wind Pressure Humidity
    00:00 -3°C° 1.3 mm 6 mps 745 mmHg 97%
    01:00 -3°C° 2.1 mm 7 mps 744 mmHg 97%
    02:00 -3°C° 2.1 mm 7 mps 744 mmHg 97%
    03:00 -3°C° 2.1 mm 7 mps 743 mmHg 98%
    04:00 -3°C° 1.9 mm 7 mps 743 mmHg 97%
    05:00 -3°C° 1.9 mm 7 mps 742 mmHg 97%
    06:00 -3°C° 1.9 mm 7 mps 742 mmHg 97%
    07:00 -3°C° 0.6 mm 7 mps 742 mmHg 96%
    08:00 -3°C° 0.6 mm 7 mps 742 mmHg 95%
    09:00 -3°C° 0.6 mm 6 mps 743 mmHg 94%
    10:00 -3°C° 0.1 mm 6 mps 743 mmHg 94%
    11:00 -3°C° 0.1 mm 6 mps 743 mmHg 93%
    12:00 -3°C° 0.1 mm 6 mps 744 mmHg 93%
    13:00 -3°C° 0.1 mm 6 mps 744 mmHg 93%
    14:00 -3°C° 0.1 mm 6 mps 745 mmHg 92%
    15:00 -3°C° 0.1 mm 6 mps 745 mmHg 92%
    16:00 -3°C° 0 mm 6 mps 745 mmHg 92%
    17:00 -2°C° 0 mm 5 mps 746 mmHg 92%
    18:00 -4°C° 0 mm 5 mps 746 mmHg 92%
    19:00 -4°C° 0 mm 5 mps 747 mmHg 92%
    20:00 -4°C° 0 mm 5 mps 747 mmHg 92%
    21:00 -4°C° 0 mm 5 mps 748 mmHg 93%
    22:00 -4°C° 0 mm 5 mps 748 mmHg 93%
    23:00 -4°C° 0 mm 5 mps 748 mmHg 92%
    Show more